BC, British Columbia

2:14 AM EST on December 08, 2016 (GMT -0500)
Hall Beach

Weather History for CYUX - April, 2013

Change the Weather History Date:

Tuesday, April 2, 2013

  Actual Average Record
Temperature  
Mean Temperature -21 °F -  
Max Temperature -11 °F 5 °F 14 °F (2001)
Min Temperature -31 °F -14 °F -34 °F (1997)
Degree Days  
Heating Degree Days 86    
Moisture  
Dew Point -27 °F    
Average Humidity 75    
Maximum Humidity 84    
Minimum Humidity 68    
Precipitation  
Precipitation 0.00 in 0.02 in - ()
Sea Level Pressure  
Sea Level Pressure 30.07 in    
Wind  
Wind Speed 10 mph ()    
Max Wind Speed 16 mph    
Max Gust Speed -    
Visibility 12.3 miles    
Events      
Averages and records for this station are not official NWS values.
T = Trace of Precipitation, MM = Missing Value Source: Averaged Metar Reports

Daily Weather History Graph

Daily Weather History Graph

Search for Another Location

Airport or City:

Trip Planner

Search our weather history database for the weather conditions in past years. The results will help you decide how hot, cold, wet, or windy it might be!

Date:

Astronomy

Apr. 02, 2013 Rise Set
Actual Time 6:26 AM EDT 8:33 PM EDT
Civil Twilight 5:23 AM EDT 9:36 PM EDT
Nautical Twilight 3:54 AM EDT 11:07 PM EDT
Astronomical Twilight 2:00 AM EDT 12:55 AM EDT
Moon 5:24 AM EDT (4/2) 8:28 AM EDT (4/2)
Length of Visible Light 16h 12m
Length of Day
14h 07m
Waning Gibbous, 56% of the Moon is Illuminated
Apr 2
Waning Gibbous
Apr 3
Last Quarter
Apr 10
New
Apr 18
First Quarter
Apr 25
Full

Hourly Weather History & Observations

Time (EDT) Temp. Windchill Dew Point Humidity Pressure Visibility Wind Dir Wind Speed Gust Speed Precip Events Conditions
12:00 AM -25.6 °F -53.0 °F -31.0 °F 76% 30.00 in 9.0 mi NW 16.1 mph - N/A   Clear
1:00 AM -25.6 °F -52.1 °F -31.0 °F 76% 30.00 in 9.0 mi NW 15.0 mph - N/A   Clear
2:00 AM -29.2 °F -51.2 °F -36.4 °F 68% 30.01 in 9.0 mi NW 9.2 mph - N/A   Clear
3:00 AM -27.4 °F -51.4 °F -34.6 °F 69% 30.01 in 9.0 mi NW 11.5 mph - N/A   Clear
4:00 AM -31.0 °F -54.7 °F -38.2 °F 68% 30.02 in 9.0 mi NW 10.4 mph - N/A   Clear
5:00 AM -27.4 °F -50.3 °F -32.8 °F 75% 30.01 in 9.0 mi NW 10.4 mph - N/A   Clear
7:00 AM -27.4 °F -47.6 °F -32.8 °F 75% 30.03 in 9.0 mi NW 8.1 mph - N/A   Clear
8:00 AM -25.6 °F -45.4 °F -32.8 °F 69% 30.04 in 15.0 mi WNW 8.1 mph - N/A   Clear
9:00 AM -23.8 °F -45.8 °F -31.0 °F 69% 30.04 in 15.0 mi NW 10.4 mph - N/A   Clear
10:00 AM -22.0 °F -37.7 °F -27.4 °F 76% 30.04 in 15.0 mi NW 5.8 mph - N/A   Clear
11:00 AM -18.4 °F -37.9 °F -23.8 °F 76% 30.05 in 15.0 mi NW 9.2 mph - N/A   Clear
1:00 PM -13.0 °F -32.4 °F -18.4 °F 77% 30.06 in 15.0 mi NW 10.4 mph - N/A   Clear
2:00 PM -13.0 °F -31.3 °F -16.6 °F 84% 30.07 in 15.0 mi WNW 9.2 mph - N/A   Clear
3:00 PM -11.2 °F -31.1 °F -16.6 °F 77% 30.09 in 15.0 mi NW 11.5 mph - N/A   Clear
4:00 PM -11.2 °F -29.0 °F -16.6 °F 77% 30.10 in 15.0 mi NW 9.2 mph - N/A   Clear
5:00 PM -13.0 °F -25.1 °F -16.6 °F 84% 30.11 in 15.0 mi WNW 4.6 mph - N/A   Clear
6:00 PM -14.8 °F -32.2 °F -18.4 °F 84% 30.12 in 15.0 mi NW 8.1 mph - N/A   Clear
7:00 PM -18.4 °F -39.1 °F -23.8 °F 76% 30.13 in 15.0 mi NW 10.4 mph - N/A   Clear
8:00 PM -22.0 °F -44.7 °F -27.4 °F 76% 30.15 in 15.0 mi NW 11.5 mph - N/A   Clear
9:00 PM -22.0 °F -45.7 °F -27.4 °F 76% 30.16 in 9.0 mi NW 12.7 mph - N/A   Clear
10:00 PM -23.8 °F -48.0 °F -29.2 °F 76% 30.17 in 9.0 mi NNW 12.7 mph - N/A   Clear
11:00 PM -27.4 °F -50.3 °F -34.6 °F 69% 30.17 in 9.0 mi NNW 10.4 mph - N/A   Clear